When you browse on this site, cookies collect data to enhance your experience and personalize the content and advertising you see.
Visit our Privacy Policy to learn more. By continuing to use the site, you agree to this use of cookies and data.
  • En España
  • Lista de países
  • Para 7 días
  • Temperatura del agua
  • El tiempo en el mapa
  • Informadores
  • user-avatar
    Iniciar sesión

    Tiempo cada hora Canillo

    Hoy, 3 Junio, Miércoles

    Tiempo Temperatura Precipitaciones Viento Presión Humedad
    00:00 +9°C° 0 mm 1 mps 616 mmHg 92%
    01:00 +9°C° 0 mm 1 mps 616 mmHg 92%
    02:00 +9°C° 0 mm 1 mps 615 mmHg 92%
    03:00 +9°C° 0 mm 1 mps 615 mmHg 92%
    04:00 +10°C° 0 mm 1 mps 615 mmHg 90%
    05:00 +10°C° 0 mm 1 mps 615 mmHg 88%
    06:00 +11°C° 0 mm 1 mps 616 mmHg 87%
    07:00 +13°C° 0.5 mm 1 mps 616 mmHg 82%
    08:00 +14°C° 0.5 mm 1 mps 616 mmHg 78%
    09:00 +15°C° 0.5 mm 1 mps 617 mmHg 74%
    10:00 +15°C° 1.1 mm 1 mps 616 mmHg 75%
    11:00 +15°C° 1.1 mm 1 mps 616 mmHg 75%
    12:00 +15°C° 1.1 mm 1 mps 615 mmHg 76%
    13:00 +15°C° 1.4 mm 1 mps 615 mmHg 79%
    14:00 +14°C° 1.4 mm 1 mps 614 mmHg 83%
    15:00 +13°C° 1.4 mm 1 mps 614 mmHg 86%
    16:00 +13°C° 1 mm 1 mps 613 mmHg 87%
    17:00 +12°C° 1 mm 1 mps 613 mmHg 88%
    18:00 +11°C° 1 mm 0 mps 612 mmHg 89%
    19:00 +10°C° 0.9 mm 0 mps 612 mmHg 91%
    20:00 +10°C° 0.9 mm 0 mps 612 mmHg 94%
    21:00 +9°C° 0.9 mm 0 mps 612 mmHg 97%
    22:00 +9°C° 1 mm 0 mps 612 mmHg 97%
    23:00 +9°C° 1 mm 0 mps 611 mmHg 98%

    Mañana, 4 Junio, Jueves

    Tiempo Temperatura Precipitaciones Viento Presión Humedad
    00:00 +8°C° 1 mm 0 mps 611 mmHg 98%
    01:00 +8°C° 0.8 mm 0 mps 611 mmHg 98%
    02:00 +9°C° 0.8 mm 1 mps 610 mmHg 98%
    03:00 +9°C° 0.8 mm 1 mps 610 mmHg 98%
    04:00 +8°C° 3 mm 1 mps 609 mmHg 98%
    05:00 +7°C° 3 mm 1 mps 609 mmHg 98%
    06:00 +6°C° 3 mm 2 mps 609 mmHg 98%
    07:00 +6°C° 1.7 mm 2 mps 609 mmHg 96%
    08:00 +8°C° 1.7 mm 1 mps 609 mmHg 94%
    09:00 +8°C° 1.7 mm 1 mps 609 mmHg 93%
    10:00 +8°C° 0.3 mm 1 mps 609 mmHg 90%
    11:00 +9°C° 0.3 mm 1 mps 609 mmHg 87%
    12:00 +9°C° 0.3 mm 1 mps 610 mmHg 84%
    13:00 +7°C° 1.1 mm 2 mps 609 mmHg 87%
    14:00 +6°C° 1.1 mm 2 mps 608 mmHg 90%
    15:00 +5°C° 1.1 mm 2 mps 608 mmHg 93%
    16:00 +6°C° 0.5 mm 2 mps 608 mmHg 91%
    17:00 +6°C° 0.5 mm 2 mps 608 mmHg 89%
    18:00 +6°C° 0.5 mm 2 mps 609 mmHg 87%
    19:00 +5°C° 0.5 mm 2 mps 609 mmHg 89%
    20:00 +5°C° 0.5 mm 2 mps 609 mmHg 92%
    21:00 +4°C° 0.5 mm 2 mps 610 mmHg 95%
    22:00 +4°C° 0.1 mm 2 mps 610 mmHg 95%
    23:00 +4°C° 0.1 mm 2 mps 610 mmHg 95%

    Pasado mañana, 5 Junio, Viernes

    Tiempo Temperatura Precipitaciones Viento Presión Humedad
    00:00 +3°C° 0.1 mm 2 mps 610 mmHg 95%
    01:00 +3°C° 0.1 mm 2 mps 610 mmHg 95%
    02:00 +3°C° 0.1 mm 2 mps 610 mmHg 94%
    03:00 +2°C° 0.1 mm 2 mps 610 mmHg 93%
    04:00 +3°C° 0 mm 2 mps 610 mmHg 92%
    05:00 +3°C° 0 mm 2 mps 611 mmHg 91%
    06:00 +3°C° 0 mm 2 mps 611 mmHg 90%
    07:00 +5°C° 0 mm 2 mps 612 mmHg 79%
    08:00 +7°C° 0 mm 2 mps 613 mmHg 69%
    09:00 +9°C° 0 mm 2 mps 614 mmHg 59%
    10:00 +12°C° 0 mm 2 mps 615 mmHg 56%
    11:00 +13°C° 0 mm 2 mps 615 mmHg 53%
    12:00 +14°C° 0 mm 2 mps 616 mmHg 51%
    13:00 +14°C° 0 mm 2 mps 616 mmHg 53%
    14:00 +14°C° 0 mm 2 mps 616 mmHg 55%
    15:00 +15°C° 0 mm 2 mps 616 mmHg 57%
    16:00 +13°C° 0 mm 2 mps 616 mmHg 65%
    17:00 +12°C° 0 mm 1 mps 615 mmHg 72%
    18:00 +10°C° 0 mm 1 mps 615 mmHg 80%
    19:00 +10°C° 0 mm 1 mps 615 mmHg 84%
    20:00 +9°C° 0 mm 1 mps 615 mmHg 88%
    21:00 +7°C° 0 mm 0 mps 615 mmHg 92%
    22:00 +6°C° 0 mm 0 mps 615 mmHg 93%
    23:00 +6°C° 0 mm 0 mps 614 mmHg 94%

    6 Junio, Sábado

    Tiempo Temperatura Precipitaciones Viento Presión Humedad
    00:00 +5°C° 0 mm 0 mps 614 mmHg 95%
    01:00 +5°C° 0 mm 0 mps 614 mmHg 95%
    02:00 +5°C° 0 mm 0 mps 614 mmHg 94%
    03:00 +5°C° 0 mm 0 mps 614 mmHg 94%
    04:00 +6°C° 0 mm 0 mps 614 mmHg 91%
    05:00 +7°C° 0 mm 0 mps 615 mmHg 88%
    06:00 +8°C° 0 mm 0 mps 615 mmHg 86%
    07:00 +11°C° 0 mm 1 mps 616 mmHg 78%
    08:00 +13°C° 0 mm 1 mps 616 mmHg 70%
    09:00 +14°C° 0 mm 2 mps 617 mmHg 62%
    10:00 +14°C° 0.3 mm 2 mps 617 mmHg 67%
    11:00 +14°C° 0.3 mm 2 mps 616 mmHg 71%
    12:00 +13°C° 0.3 mm 2 mps 616 mmHg 76%
    13:00 +13°C° 0.8 mm 2 mps 616 mmHg 79%
    14:00 +13°C° 0.8 mm 2 mps 615 mmHg 83%
    15:00 +13°C° 0.8 mm 2 mps 615 mmHg 86%
    16:00 +12°C° 0.7 mm 1 mps 615 mmHg 88%
    17:00 +12°C° 0.7 mm 1 mps 615 mmHg 90%
    18:00 +11°C° 0.7 mm 1 mps 614 mmHg 92%
    19:00 +11°C° 1.2 mm 1 mps 615 mmHg 93%
    20:00 +10°C° 1.2 mm 1 mps 615 mmHg 95%
    21:00 +9°C° 1.2 mm 1 mps 615 mmHg 96%
    22:00 +9°C° 0.4 mm 1 mps 615 mmHg 96%
    23:00 +8°C° 0.4 mm 0 mps 614 mmHg 96%

    7 Junio, Domingo

    Tiempo Temperatura Precipitaciones Viento Presión Humedad
    00:00 +7°C° 0.4 mm 0 mps 614 mmHg 96%
    01:00 +7°C° 0.1 mm 0 mps 614 mmHg 95%
    02:00 +7°C° 0.1 mm 0 mps 614 mmHg 95%
    03:00 +7°C° 0.1 mm 0 mps 614 mmHg 95%
    04:00 +7°C° 0.6 mm 0 mps 614 mmHg 95%
    05:00 +8°C° 0.6 mm 1 mps 615 mmHg 96%
    06:00 +8°C° 0.6 mm 1 mps 615 mmHg 96%
    07:00 +9°C° 0.5 mm 1 mps 615 mmHg 95%
    08:00 +9°C° 0.5 mm 1 mps 616 mmHg 95%
    09:00 +9°C° 0.5 mm 1 mps 616 mmHg 94%
    10:00 +9°C° 0.9 mm 1 mps 616 mmHg 94%
    11:00 +9°C° 0.9 mm 1 mps 616 mmHg 94%
    12:00 +9°C° 0.9 mm 1 mps 616 mmHg 93%
    13:00 +9°C° 0.8 mm 1 mps 616 mmHg 93%
    14:00 +9°C° 0.8 mm 1 mps 616 mmHg 92%
    15:00 +9°C° 0.8 mm 1 mps 616 mmHg 91%
    16:00 +9°C° 0.7 mm 1 mps 616 mmHg 92%
    17:00 +9°C° 0.7 mm 1 mps 616 mmHg 93%
    18:00 +8°C° 0.7 mm 1 mps 615 mmHg 94%
    19:00 +8°C° 1.1 mm 1 mps 616 mmHg 95%
    20:00 +7°C° 1.1 mm 1 mps 616 mmHg 96%
    21:00 +7°C° 1.1 mm 1 mps 616 mmHg 96%
    22:00 +6°C° 0.1 mm 1 mps 616 mmHg 96%
    23:00 +6°C° 0.1 mm 1 mps 616 mmHg 96%

    8 Junio, Lunes

    Tiempo Temperatura Precipitaciones Viento Presión Humedad
    00:00 +6°C° 0.1 mm 1 mps 616 mmHg 96%
    01:00 +5°C° 0.1 mm 1 mps 616 mmHg 96%
    02:00 +5°C° 0.1 mm 1 mps 616 mmHg 96%
    03:00 +5°C° 0.1 mm 1 mps 616 mmHg 95%
    04:00 +5°C° 0 mm 1 mps 616 mmHg 95%
    05:00 +5°C° 0 mm 1 mps 616 mmHg 94%
    06:00 +6°C° 0 mm 1 mps 616 mmHg 93%
    07:00 +7°C° 0 mm 1 mps 617 mmHg 87%
    08:00 +8°C° 0 mm 1 mps 618 mmHg 81%
    09:00 +9°C° 0 mm 1 mps 618 mmHg 75%
    10:00 +10°C° 0 mm 1 mps 619 mmHg 70%
    11:00 +11°C° 0 mm 1 mps 619 mmHg 65%
    12:00 +12°C° 0 mm 2 mps 619 mmHg 60%
    13:00 +12°C° 0.1 mm 2 mps 619 mmHg 63%
    14:00 +11°C° 0.1 mm 1 mps 618 mmHg 67%
    15:00 +11°C° 0.1 mm 1 mps 618 mmHg 70%
    16:00 +10°C° 0.1 mm 1 mps 618 mmHg 75%
    17:00 +9°C° 0.1 mm 1 mps 617 mmHg 80%
    18:00 +8°C° 0.1 mm 1 mps 617 mmHg 85%
    19:00 +8°C° 0 mm 1 mps 617 mmHg 87%
    20:00 +7°C° 0 mm 1 mps 617 mmHg 89%
    21:00 +6°C° 0 mm 0 mps 618 mmHg 91%
    22:00 +5°C° 0 mm 0 mps 617 mmHg 92%
    23:00 +5°C° 0 mm 0 mps 617 mmHg 93%
    Mostrar más